To NAV CANADA Home Page Login to a new session Search on AWWS site Feedback and Comments Disclaimer Vers la page française équivalente Tips FAQ What's new on the site To the Forecasts and Observations / NOTAM section To "File a Flight Plan" website Publications and other links Update of the User's profile FIC Telephone Numbers My Weather Data Folder Route Weather Data Regional Weather Data Local Weather Data To the Forecasts and Observations / NOTAM section
Request Generated 05/29/2015 at 01:49:36 UTC . Weather information available at that time is displayed.

METAR/TAF

ST. LEONARD/NB    

LWIS CYSL 290100Z AUTO 29005KT 16/15 A3013=
LWIS CYSL 290000Z AUTO 31003KT 16/15 A3009=
LWIS CYSL 282300Z AUTO 25003KT 240V300 16/16 A3006=

CYSL - No TAF is issued for this station

Your time UTC time
Weather data provided by Environment Canada and NAV CANADA